Location: Rule_TX
(33.1868°N, 99.8993°W)
Time: 04:25:20
(UTC-05:00)

ISS - Visible Passes

Search period start: 15 May 2021 00:00
Search period end: 25 May 2021 00:00
Orbit: 417 x 422 km, 51.6° (Epoch: 15 May)

Date Brightness Start Highest point End Pass type
(mag) Time Alt. Az. Time Alt. Az. Time Alt. Az.
15 May -0.8 04:30:23 10° NNW 04:32:51 18° NNE 04:35:17 10° E visible
15 May -3.3 06:06:35 10° WNW 06:09:45 38° SW 06:12:54 10° SSE visible
15 May -3.6 21:10:00 10° SSW 21:13:14 50° SE 21:16:30 10° ENE visible
15 May -0.6 22:48:07 10° WNW 22:50:14 16° NNW 22:52:22 10° N visible
16 May -0.3 03:43:42 10° N 03:45:12 12° NNE 03:46:42 10° NE visible
16 May -3.9 05:19:00 10° NW 05:22:22 79° SW 05:25:44 10° SE visible
16 May -1.2 21:59:50 10° W 22:02:38 24° NW 22:05:27 10° NNE visible
17 May -3.0 04:33:43 33° NNW 04:34:55 53° NE 04:38:13 10° ESE visible
17 May -1.7 06:10:26 10° WSW 06:11:20 11° SW 06:12:15 10° SW visible
17 May -2.3 21:11:54 10° WSW 21:15:06 41° NW 21:18:18 10° NNE visible
18 May -0.2 22:04:10 10° NW 22:04:53 10° NNW 22:05:37 10° NNW visible
19 May -0.6 21:15:05 10° WNW 21:17:12 16° NNW 21:19:19 10° N visible
